Louisville, KY

10:40 AM EST on December 07, 2016 (GMT -0500)
Louisville International-Standiford

Weather History for KSDF - March, 2013

Change the Weather History Date:

Saturday, March 30, 2013

  Actual Average Record
Temperature  
Mean Temperature 48 °F 53 °F  
Max Temperature 62 °F 63 °F 83 °F (1977)
Min Temperature 34 °F 42 °F 20 °F (1964)
Degree Days  
Heating Degree Days 17 13  
Month to date heating degree days 726 525  
Since 1 July heating degree days 3808 3766  
Cooling Degree Days 0 0  
Month to date cooling degree days 0 0  
Year to date cooling degree days 0 0  
Moisture  
Dew Point 37 °F    
Average Humidity 68    
Maximum Humidity 100    
Minimum Humidity 36    
Precipitation  
Precipitation T in 0.14 in 1.58 in (1938)
Month to date precipitation 4.20 4.03  
Year to date precipitation 11.22 10.45  
Snow  
Snow 0.00 in 0.00 in 10.00 in (1887)
Month to date snowfall 1.4 1.4  
Since 1 July snowfall 9.5 12.4  
Snow Depth 0.00 in    
Sea Level Pressure  
Sea Level Pressure 30.16 in    
Wind  
Wind Speed 5 mph (SE)    
Max Wind Speed 14 mph    
Max Gust Speed 18 mph    
Visibility 5 miles    
Events Fog    
T = Trace of Precipitation, MM = Missing Value Source: NWS Daily Summary

Daily Weather History Graph

Daily Weather History Graph

Search for Another Location

Airport or City:

Trip Planner

Search our weather history database for the weather conditions in past years. The results will help you decide how hot, cold, wet, or windy it might be!

Date:

Astronomy

Mar. 30, 2013 Rise Set
Actual Time 7:30 AM EDT 8:04 PM EDT
Civil Twilight 7:04 AM EDT 8:31 PM EDT
Nautical Twilight 6:32 AM EDT 9:02 PM EDT
Astronomical Twilight 6:00 AM EDT 9:34 PM EDT
Moon No Moon Rise 9:28 AM EDT (3/30)
Length of Visible Light 13h 26m
Length of Day
12h 33m
Waning Gibbous, 86% of the Moon is Illuminated
Mar 30
Waning Gibbous
Apr 3
Last Quarter
Apr 10
New
Apr 18
First Quarter
Apr 25
Full

Hourly Weather History & Observations

Time (EDT) Temp. Windchill Dew Point Humidity Pressure Visibility Wind Dir Wind Speed Gust Speed Precip Events Conditions
12:56 AM 44.1 °F - 39.9 °F 85% 30.24 in 8.0 mi Calm Calm - N/A   Scattered Clouds
1:56 AM 42.1 °F - 39.0 °F 89% 30.24 in 7.0 mi Calm Calm - N/A   Partly Cloudy
2:56 AM 39.0 °F 36.8 °F 37.0 °F 93% 30.23 in 6.0 mi SE 3.5 mph - N/A   Partly Cloudy
3:56 AM 39.0 °F - 37.0 °F 93% 30.23 in 4.0 mi Calm Calm - N/A   Partly Cloudy
4:56 AM 39.0 °F - 37.0 °F 93% 30.23 in 4.0 mi Calm Calm - N/A   Partly Cloudy
5:24 AM 37.4 °F 33.8 °F 35.6 °F 93% 30.21 in 3.0 mi SSE 4.6 mph - N/A   Scattered Clouds
5:34 AM 35.6 °F 31.7 °F 35.6 °F 100% 30.21 in 2.5 mi SSE 4.6 mph - N/A   Scattered Clouds
5:38 AM 35.6 °F 32.8 °F 35.6 °F 100% 30.21 in 0.8 mi ESE 3.5 mph - N/A   Scattered Clouds
5:42 AM 35.6 °F - 35.6 °F 100% 30.21 in 0.5 mi Calm Calm - N/A Fog Fog
5:54 AM 35.6 °F - 35.6 °F 100% 30.21 in 0.2 mi Calm Calm - N/A Fog Fog
5:56 AM 35.1 °F - 35.1 °F 100% 30.22 in 0.2 mi Calm Calm - N/A Fog Fog
6:09 AM 35.6 °F - 35.6 °F 100% 30.22 in 0.2 mi Calm Calm - N/A Fog Fog
6:56 AM 34.0 °F - 34.0 °F 100% 30.25 in 0.2 mi Calm Calm - N/A Fog Fog
7:38 AM 33.8 °F 30.8 °F 33.8 °F 100% 30.24 in 0.1 mi ESE 3.5 mph - N/A Fog Fog
7:56 AM 34.0 °F 31.0 °F 34.0 °F 100% 30.24 in 0.1 mi ESE 3.5 mph - N/A Fog Fog
8:31 AM 35.6 °F 31.7 °F 35.6 °F 100% 30.23 in 0.1 mi ESE 4.6 mph - N/A Fog Fog
8:56 AM 36.0 °F 33.3 °F 36.0 °F 100% 30.24 in 0.1 mi ESE 3.5 mph - N/A Fog Fog
9:33 AM 37.4 °F 34.9 °F 37.4 °F 100% 30.23 in 0.1 mi East 3.5 mph - N/A Fog Fog
9:56 AM 37.9 °F 35.5 °F 37.9 °F 100% 30.22 in 0.1 mi ESE 3.5 mph - N/A Fog Fog
10:03 AM 37.4 °F - 37.4 °F 100% 30.22 in 0.1 mi Calm Calm - N/A Fog Fog
10:19 AM 39.2 °F - 39.2 °F 100% 30.22 in 0.1 mi Calm Calm - N/A Fog Fog
10:46 AM 41.0 °F - 41.0 °F 100% 30.21 in 1.2 mi Calm Calm - N/A   Overcast
10:56 AM 41.0 °F - 41.0 °F 100% 30.23 in 2.5 mi Calm Calm - N/A   Overcast
11:05 AM 41.0 °F - 41.0 °F 100% 30.22 in 3.0 mi Calm Calm - N/A   Overcast
11:35 AM 44.6 °F - 42.8 °F 93% 30.21 in 5.0 mi Calm Calm - N/A   Mostly Cloudy
11:56 AM 48.0 °F - 42.1 °F 80% 30.20 in 7.0 mi Calm Calm - N/A   Mostly Cloudy
12:56 PM 55.0 °F - 39.0 °F 55% 30.17 in 10.0 mi SE 11.5 mph - N/A   Mostly Cloudy
1:56 PM 57.9 °F - 37.0 °F 46% 30.13 in 10.0 mi ESE 8.1 mph - N/A   Mostly Cloudy
2:56 PM 60.1 °F - 35.1 °F 39% 30.11 in 10.0 mi SSE 13.8 mph - N/A   Mostly Cloudy
3:56 PM 60.1 °F - 35.1 °F 39% 30.07 in 10.0 mi South 6.9 mph - N/A   Mostly Cloudy
4:56 PM 61.0 °F - 34.0 °F 36% 30.05 in 10.0 mi Variable 3.5 mph - N/A   Overcast
5:56 PM 61.0 °F - 33.1 °F 35% 30.02 in 10.0 mi South 8.1 mph - N/A   Overcast
6:56 PM 59.0 °F - 36.0 °F 42% 30.01 in 10.0 mi South 8.1 mph - N/A   Overcast
7:56 PM 57.0 °F - 37.9 °F 49% 30.01 in 10.0 mi South 8.1 mph - N/A   Overcast
8:56 PM 55.9 °F - 37.9 °F 51% 29.99 in 10.0 mi South 5.8 mph - N/A   Overcast
9:56 PM 55.9 °F - 39.9 °F 55% 29.98 in 10.0 mi South 5.8 mph - N/A   Overcast
10:56 PM 54.0 °F - 39.0 °F 57% 29.97 in 10.0 mi SE 3.5 mph - N/A   Overcast
11:56 PM 53.1 °F - 42.1 °F 66% 29.95 in 10.0 mi SE 4.6 mph - 0.00 in   Mostly Cloudy